Stations météo

réclame
Mon MeteoGroup
Figari, France (7780): Température de l'air & dewpoint: 20.08.2019 02:00:00 - 26.08.2019 02:00:00 (CEST)Figari, France (7780): Température de l'air 5cm: 20.08.2019 02:00:00 - 26.08.2019 02:00:00 (CEST)Figari, France (7780): Vitesse du vent & gusts: 20.08.2019 02:00:00 - 26.08.2019 02:00:00 (CEST)Figari, France (7780): Direction du vent: 20.08.2019 02:00:00 - 26.08.2019 02:00:00 (CEST)Figari, France (7780): reduced air pressure: 20.08.2019 02:00:00 - 26.08.2019 02:00:00 (CEST)Figari, France (7780): visibility: 20.08.2019 02:00:00 - 26.08.2019 02:00:00 (CEST)Figari, France (7780): Quantités de précipitations: 20.08.2019 02:00:00 - 26.08.2019 02:00:00 (CEST)
Date & Time tt [°C] td [°C] tt 5cm [°C] ff [km/h] ff [knt] fx [km/h] fx [knt] dd ppp [hPa] vv [km] rr [mm]
26.08.2019 02:00:00 20,1 18,8 18,1 0 0 4 2 N 1016,9 9 0,0
26.08.2019 01:00:00 20,5 19,2 18,5 0 0 9 5 N 1017,1 9 0,0
26.08.2019 00:00:00 21,1 19,4 18,9 5 3 8 5 N 1017,3 7 0,0
25.08.2019 23:00:00 22,1 20,4 19,6 7 4 10 5 N 1017,1 7 0,0
25.08.2019 22:00:00 23,4 20,9 20,4 4 2 11 6 NNE 1017,0 15 0,0
25.08.2019 21:00:00 23,8 20,7 21,4 3 2 10 5 NE 1016,7 18 0,0
25.08.2019 20:00:00 25,5 21,4 22,9 6 3 11 6 NE 1015,9 14 0,0
25.08.2019 19:00:00 25,3 22,6 24,1 7 4 16 9 N 1015,5 18 0,0
25.08.2019 18:00:00 24,1 21,2 23,8 10 5 55 30 N 1015,9 3,9 8,4
25.08.2019 17:00:00 32,1 19,0 40,8 14 7 27 15 SSW 1015,3 19 0,0
25.08.2019 16:00:00 31,8 19,1 47,9 16 8 29 16 WSW 1015,4 17 0,0
25.08.2019 15:00:00 32,0 19,9 42,0 15 8 29 15 SSW 1015,9 27 0,0
25.08.2019 14:00:00 30,6 19,9 45,7 14 8 32 17 WSW 1016,3 22 0,0
25.08.2019 13:00:00 30,7 20,6 45,3 19 11 32 17 SW 1016,6 19 0,0
25.08.2019 12:00:00 30,6 20,2 43,1 18 10 30 16 SW 1017,0 17 0,0
25.08.2019 11:00:00 30,7 15,9 39,4 9 5 25 13 ENE 1017,2 31 0,0
25.08.2019 10:00:00 29,1 17,9 31,2 7 4 21 11 ENE 1017,1 20 0,0
25.08.2019 09:00:00 26,2 19,3 21,7 3 2 6 3 NNE 1016,9 22 0,0
25.08.2019 08:00:00 20,9 18,3 15,3 3 2 5 3 NE 1016,7 17 0,0
25.08.2019 07:00:00 16,8 15,0 15,1 3 2 7 4 NNE 1016,4 10 0,0
25.08.2019 06:00:00 17,7 16,0 15,3 5 3 9 5 NE 1016,2 10 0,0
25.08.2019 05:00:00 17,7 15,9 15,5 5 3 8 4 NE 1016,3 12 0,0
25.08.2019 04:00:00 18,2 16,0 15,8 3 2 9 5 NE 1016,5 12 0,0
25.08.2019 03:00:00 18,9 16,7 16,3 4 2 7 4 NNE 1016,5 15 0,0
25.08.2019 02:00:00 19,5 17,3 16,8 4 2 7 4 NNE 1016,7 14 0,0
25.08.2019 01:00:00 20,4 17,8 17,8 5 3 10 5 NNE 1017,0 14 0,0
25.08.2019 00:00:00 21,8 18,8 18,8 7 4 9 5 N 1017,2 15 0,0
24.08.2019 23:00:00 22,7 19,3 19,7 6 3 12 6 NNE 1017,0 17 0,0
24.08.2019 22:00:00 24,0 19,9 22,0 7 4 17 9 E 1017,1 20 0,0
24.08.2019 21:00:00 24,8 19,8 22,6 6 3 16 8 ENE 1016,7 23 0,0
24.08.2019 20:00:00 26,2 20,3 25,4 9 5 27 15 ENE 1016,1 23 0,0
24.08.2019 19:00:00 28,1 20,6 28,9 16 9 26 14 ENE 1015,8 26 0,0
24.08.2019 18:00:00 28,9 19,5 31,9 14 7 27 15 NE 1015,7 32 0,0
24.08.2019 17:00:00 29,4 19,4 33,8 15 8 29 16 ENE 1016,1 38 0,0
24.08.2019 16:00:00 29,5 18,6 35,3 16 8 34 18 NE 1016,3 20 0,0
24.08.2019 15:00:00 28,7 19,1 35,2 20 11 45 24 ENE 1016,8 29 0,0
24.08.2019 14:00:00 30,9 17,9 42,1 25 13 46 25 NE 1016,8 42 0,0
24.08.2019 13:00:00 31,1 16,3 43,0 19 10 37 20 ENE 1017,0 19 0,0
24.08.2019 12:00:00 31,3 16,5 40,9 17 9 33 18 ENE 1017,3 51 0,0
24.08.2019 11:00:00 30,9 16,1 37,7 14 8 32 17 E 1017,4 46 0,0
24.08.2019 10:00:00 29,6 16,4 31,4 12 7 24 13 E 1017,3 33 0,0
24.08.2019 09:00:00 27,5 16,8 20,6 8 4 18 10 E 1017,2 46 0,0
24.08.2019 08:00:00 20,6 16,6 15,4 2 1 13 7 NE 1017,4 20 0,0
24.08.2019 07:00:00 17,3 14,8 15,0 5 3 10 5 NNE 1017,5 18 0,0
24.08.2019 06:00:00 18,3 15,4 15,5 6 4 11 6 NE 1017,2 20 0,0
24.08.2019 05:00:00 19,8 16,2 16,4 8 5 12 7 NNE 1017,3 24 0,0
24.08.2019 04:00:00 19,6 16,2 16,4 7 4 11 6 NE 1017,3 22 0,0
24.08.2019 03:00:00 20,5 16,7 17,7 9 5 16 9 NE 1017,4 24 0,0
24.08.2019 02:00:00 20,6 16,8 17,7 9 5 14 8 NE 1017,7 25 0,0
24.08.2019 01:00:00 21,0 17,0 18,1 8 4 15 8 NE 1017,9 24 0,0
24.08.2019 00:00:00 21,9 17,3 19,4 8 4 16 9 ENE 1017,8 28 0,0
23.08.2019 23:00:00 22,6 17,3 20,1 9 5 19 11 NE 1018,0 31 0,0
23.08.2019 22:00:00 22,9 17,4 20,4 11 6 18 10 ENE 1018,1 31 0,0
23.08.2019 21:00:00 23,7 17,2 21,5 9 5 18 10 ENE 1018,0 34 0,0
23.08.2019 20:00:00 25,5 17,7 24,4 13 7 24 13 ENE 1017,8 36 0,0
23.08.2019 19:00:00 27,4 18,7 27,3 11 6 31 17 ENE 1017,2 38 0,0
23.08.2019 18:00:00 29,3 18,1 31,8 15 8 35 19 E 1017,2 20 0,0
23.08.2019 17:00:00 30,1 16,9 34,5 16 9 33 18 ENE 1017,2 36 0,0
23.08.2019 16:00:00 31,1 17,4 36,5 11 6 27 15 ENE 1017,4 29 0,0
23.08.2019 15:00:00 29,8 17,9 32,1 17 9 34 18 NE 1017,7 38 0,0
23.08.2019 14:00:00 27,9 20,2 32,7 19 11 38 21 NE 1018,1 29 0,0
23.08.2019 13:00:00 30,4 17,5 38,0 8 5 23 13 SSW 1018,5 51 0,0
23.08.2019 12:00:00 29,8 17,9 34,6 8 4 24 13 SE 1018,6 45 0,0
23.08.2019 11:00:00 28,9 19,8 34,2 8 4 24 13 NNE 1018,5 20 0,0
23.08.2019 10:00:00 28,2 20,2 26,5 11 6 26 14 NE 1018,3 37 0,0
23.08.2019 09:00:00 26,0 19,9 22,4 10 5 21 11 E 1018,0 31 0,0
23.08.2019 08:00:00 21,1 19,6 17,0 2 1 6 4 W 1018,0 16 0,0
23.08.2019 07:00:00 19,1 17,9 16,2 6 4 10 6 ENE 1017,3 7 0,0
23.08.2019 06:00:00 19,9 18,6 16,9 2 1 11 6 NNE 1017,2 7 0,0
23.08.2019 05:00:00 20,8 19,5 17,3 6 3 11 6 NNW 1017,2 6 0,0
23.08.2019 04:00:00 21,7 20,2 19,6 4 2 7 4 NNW 1017,7 8 0,0
23.08.2019 03:00:00 21,8 19,9 20,7 5 3 13 7 ESE 1017,7 10 0,0
23.08.2019 02:00:00 23,1 21,5 21,3 5 3 16 9 NNW 1018,3 9 0,0
23.08.2019 01:00:00 23,5 21,8 22,5 12 6 17 9 E 1018,4 9 0,4
23.08.2019 00:00:00 24,1 22,2 23,0 8 5 20 11 ENE 1018,6 10 0,4
22.08.2019 23:00:00 25,3 22,2 24,1 8 5 16 9 ENE 1018,7 18 0,0
22.08.2019 22:00:00 26,3 21,5 25,3 8 4 16 9 ENE 1018,3 28 0,0
22.08.2019 21:00:00 26,8 21,8 26,3 4 2 22 12 ENE 1017,5 27 0,0
22.08.2019 20:00:00 27,7 21,3 27,5 6 3 18 10 ESE 1017,1 31 0,0
22.08.2019 19:00:00 28,7 21,2 30,4 7 4 24 13 ENE 1016,9 34 0,0
22.08.2019 18:00:00 29,3 20,2 32,2 12 6 27 15 ENE 1017,0 32 0,0
22.08.2019 17:00:00 30,1 17,5 33,3 12 6 26 14 E 1017,6 47 0,0
22.08.2019 16:00:00 30,8 20,4 35,4 14 8 27 15 E 1017,4 16 0,0
22.08.2019 15:00:00 30,5 20,4 35,4 11 6 28 15 E 1017,5 34 0,0
22.08.2019 14:00:00 30,8 20,1 36,9 16 8 28 15 ENE 1017,7 34 0,0
22.08.2019 13:00:00 32,3 19,5 41,8 12 7 26 14 ENE 1017,8 20 0,0
22.08.2019 12:00:00 31,9 17,8 39,8 9 5 23 12 E 1017,8 19 0,0
22.08.2019 11:00:00 31,0 18,4 37,3 11 6 23 12 ENE 1017,7 35 0,0
22.08.2019 10:00:00 29,4 21,1 27,7 11 6 23 12 NE 1017,7 38 0,0
22.08.2019 09:00:00 26,3 22,2 25,9 9 5 18 10 E 1017,6 25 0,0
22.08.2019 08:00:00 25,4 21,9 22,6 10 6 22 12 ENE 1017,6 23 0,0
22.08.2019 07:00:00 23,8 20,9 22,1 13 7 22 12 ENE 1017,2 22 0,0
22.08.2019 06:00:00 23,4 20,3 21,8 12 7 19 10 ENE 1016,9 27 0,0
22.08.2019 05:00:00 23,3 20,2 21,8 12 7 21 12 ENE 1016,8 28 0,0
22.08.2019 04:00:00 23,6 19,7 20,9 14 8 27 14 E 1017,0 30 0,0
22.08.2019 03:00:00 23,5 19,6 18,3 11 6 19 10 ENE 1017,2 29 0,0
22.08.2019 02:00:00 22,6 19,4 17,1 7 4 17 9 ENE 1017,4 29 0,0
22.08.2019 01:00:00 21,4 19,3 16,9 7 4 11 6 ENE 1017,6 31 0,0
22.08.2019 00:00:00 20,2 17,0 17,4 3 2 6 3 NNE 1017,9 30 0,0
21.08.2019 23:00:00 21,7 17,9 18,9 0 0 9 5 N 1017,8 30 0,0
21.08.2019 22:00:00 24,7 20,2 21,3 8 4 14 8 E 1017,5 36 0,0
21.08.2019 21:00:00 25,5 19,6 21,4 6 3 10 5 ENE 1017,0 46 0,0
21.08.2019 20:00:00 26,6 18,7 25,2 7 4 19 10 S 1016,5 43 0,0
21.08.2019 19:00:00 29,7 18,8 29,5 13 7 22 12 S 1016,1 51 0,0
21.08.2019 18:00:00 32,9 13,0 33,8 16 9 28 15 WSW 1016,1 40 0,0
21.08.2019 17:00:00 33,6 15,1 42,2 15 8 32 17 SW 1016,2 48 0,0
21.08.2019 16:00:00 32,6 18,4 43,2 20 11 32 17 SSW 1016,4 39 0,0
21.08.2019 15:00:00 32,7 19,2 44,0 20 11 33 18 S 1016,3 17 0,0
21.08.2019 14:00:00 32,3 17,4 42,5 16 9 29 16 S 1016,9 20 0,0
21.08.2019 13:00:00 30,6 20,2 41,7 18 10 32 17 SSW 1017,5 50 0,0
21.08.2019 12:00:00 29,7 20,0 41,6 16 9 29 15 S 1017,8 20 0,0
21.08.2019 11:00:00 29,3 20,2 39,2 15 8 29 15 SSW 1017,9 56 0,0
21.08.2019 10:00:00 28,8 19,7 32,0 6 3 15 8 SW 1017,8 29 0,0
21.08.2019 09:00:00 26,0 18,4 22,0 5 3 12 7 WSW 1017,8 38 0,0
21.08.2019 08:00:00 21,6 18,4 14,5 2 1 6 3 NE 1017,6 20 0,0
21.08.2019 07:00:00 16,3 14,3 14,1 4 2 10 5 N 1017,3 11 0,0
21.08.2019 06:00:00 17,1 15,3 14,5 3 2 9 5 NNE 1017,2 14 0,0
21.08.2019 05:00:00 17,2 14,8 15,0 4 2 8 4 E 1016,9 16 0,0
21.08.2019 04:00:00 17,9 15,3 15,6 5 3 8 5 NE 1016,8 21 0,0
21.08.2019 03:00:00 18,6 15,7 15,9 4 2 8 4 ENE 1016,9 27 0,0
21.08.2019 02:00:00 18,0 15,3 15,9 4 2 8 5 ENE 1017,0 28 0,0
21.08.2019 01:00:00 19,1 16,1 16,0 6 3 9 5 NNE 1017,1 32 0,0
21.08.2019 00:00:00 20,9 16,5 16,6 7 4 10 5 NE 1017,2 38 0,0
20.08.2019 23:00:00 20,4 16,6 17,3 5 3 9 5 NNE 1017,1 39 0,0
20.08.2019 22:00:00 22,0 17,6 17,7 8 5 11 6 NE 1017,0 38 0,0
20.08.2019 21:00:00 23,8 18,2 19,7 2 1 11 6 S 1017,1 44 0,0
20.08.2019 20:00:00 27,1 19,2 24,8 9 5 21 11 SSW 1016,8 48 0,0
20.08.2019 19:00:00 29,2 20,1 28,1 11 6 25 14 SW 1016,5 51 0,0
20.08.2019 18:00:00 30,9 20,8 33,6 17 9 27 14 WSW 1016,5 54 0,0
20.08.2019 17:00:00 32,3 19,2 44,1 12 7 31 17 W 1016,4 34 0,0
20.08.2019 16:00:00 33,4 19,5 48,5 18 10 35 19 W 1016,4 60 0,0
20.08.2019 15:00:00 34,7 11,8 45,7 9 5 30 16 ENE 1016,3 60 0,0
20.08.2019 14:00:00 34,5 11,0 45,4 16 9 30 16 E 1016,6 60 0,0
20.08.2019 13:00:00 33,8 14,3 46,0 16 9 34 18 ENE 1016,8 60 0,0
20.08.2019 12:00:00 32,3 18,5 43,8 12 7 28 15 E 1017,1 20 0,0
20.08.2019 11:00:00 30,6 19,0 36,2 13 7 32 17 E 1017,2 49 0,0
20.08.2019 10:00:00 28,6 20,1 31,9 16 9 32 17 E 1016,9 48 0,0
20.08.2019 09:00:00 27,1 21,4 25,1 18 10 30 16 ENE 1016,8 44 0,0
20.08.2019 08:00:00 24,8 21,1 21,2 12 7 24 13 ENE 1016,5 36 0,0
20.08.2019 07:00:00 22,6 20,5 20,4 11 6 24 13 ENE 1016,4 27 0,0
20.08.2019 06:00:00 22,4 19,8 20,4 13 7 24 13 ENE 1016,4 36 0,0
20.08.2019 05:00:00 22,7 20,6 21,1 9 5 24 13 E 1016,5 27 0,0
20.08.2019 04:00:00 23,0 20,9 21,0 16 9 28 15 ENE 1016,6 29 0,0
20.08.2019 03:00:00 22,6 20,9 20,3 9 5 16 9 ENE 1017,0 26 0,0
20.08.2019 02:00:00 22,8 20,9 20,4 9 5 16 9 E 1017,4 27 0,0

tt = Température de l'air
td = dewpoint
tt 5cm = Température de l'air 5cm
ff = Vitesse du vent
fx = gusts
dd = Direction du vent
ppp = reduced air pressure
vv = visibility
rr = Quantités de précipitations

stations d'obs. à proximité